ROMMA est une association bénévole à but non lucratif. Votre soutien est indispensable : ADHERER à ROMMA ou FAIRE un DON

Miribel-les-Echelles - (38, Isère)

Massif de la Chartreuse (760 m)   Longitude: 05° 41' 54'' E   Latitude: 45° 26' 40'' N Station romma n°22
 

Détail journalier du     <<     >>

Température Precipitation Humidité Pression Vent Dir Rafale Dir. rafale Ensol.
Heure (°C) (mm) (%) (hPa) (km/h) (km/h) (min)
01:00 10.809610152NE11ENE0
02:00 10.709510151NNE8NNE0
03:00 11.509010153NNE19N0
04:00 10.109210142SSE11O0
05:00 10.109210132NE6ENE0
06:00 13.907310122SSO11S0
07:00 10.808910124ONO18ONO0
08:00 10.309010122O15O0
09:00 11.109010124O18ONO30
10:00 13.608110122ESE10O30
11:00 14.707210113SSE11SSO0
12:00 17.606910113ESE18SSE30
13:00 16.107910104O18NNE0
14:00 16.208410094ONO16O0
15:00 14.908710086E24O0
16:00 18.206810091S10SSE0
17:00 12.509210116NNE19NE0
18:00 11.409510116ONO19NO0
19:00 11.619510124NE16OSO0
20:00 11.83.49510143SSO15NNO0
21:00 11.71.89610125NNE15NNE0
22:00 11.90.69610112NNE11ONO0
23:00 12.009610122O6O0
minuit 11.83.89610122O18ONO0

Graphique du 23-10-2019

 

Serveur OMMA